Year,Month,Day,Hour,Minute,Value (Times are PST for temperature in C)
2013,05,04,00,00,13.20
2013,05,04,00,01,13.10
2013,05,04,00,02,13.00
2013,05,04,00,03,13.00
2013,05,04,00,04,12.90
2013,05,04,00,05,12.90
2013,05,04,00,06,12.80
2013,05,04,00,07,12.80
2013,05,04,00,08,12.80
2013,05,04,00,09,12.70
2013,05,04,00,10,12.70
2013,05,04,00,11,12.70
2013,05,04,00,12,12.70
2013,05,04,00,13,12.70
2013,05,04,00,14,12.70
2013,05,04,00,15,12.60
2013,05,04,00,16,12.60
2013,05,04,00,17,12.70
2013,05,04,00,18,12.70
2013,05,04,00,19,12.70
2013,05,04,00,20,12.70
2013,05,04,00,21,12.70
2013,05,04,00,22,12.70
2013,05,04,00,23,12.70
2013,05,04,00,24,12.70
2013,05,04,00,25,12.70
2013,05,04,00,26,12.60
2013,05,04,00,27,12.60
2013,05,04,00,28,12.60
2013,05,04,00,29,12.60
2013,05,04,00,30,12.50
2013,05,04,00,31,12.50
2013,05,04,00,32,12.50
2013,05,04,00,33,12.40
2013,05,04,00,34,12.40
2013,05,04,00,35,12.40
2013,05,04,00,36,12.40
2013,05,04,00,37,12.40
2013,05,04,00,38,12.40
2013,05,04,00,39,12.40
2013,05,04,00,40,12.40
2013,05,04,00,41,12.40
2013,05,04,00,42,12.40
2013,05,04,00,43,12.40
2013,05,04,00,44,12.40
2013,05,04,00,45,12.40
2013,05,04,00,46,12.40
2013,05,04,00,47,12.40
2013,05,04,00,48,12.40
2013,05,04,00,49,12.40
2013,05,04,00,50,12.40
2013,05,04,00,51,12.40
2013,05,04,00,52,12.40
2013,05,04,00,53,12.50
2013,05,04,00,54,12.50
2013,05,04,00,55,12.60
2013,05,04,00,56,12.60
2013,05,04,00,57,12.70
2013,05,04,00,58,12.80
2013,05,04,00,59,12.90
2013,05,04,01,00,13.00
2013,05,04,01,01,13.10
2013,05,04,01,02,13.10
2013,05,04,01,03,13.10
2013,05,04,01,04,13.50
2013,05,04,01,05,13.50
2013,05,04,01,06,13.50
2013,05,04,01,07,13.50
2013,05,04,01,08,13.40
2013,05,04,01,09,13.40
2013,05,04,01,10,13.30
2013,05,04,01,11,13.30
2013,05,04,01,12,13.20
2013,05,04,01,13,13.20
2013,05,04,01,14,13.10
2013,05,04,01,15,13.00
2013,05,04,01,16,13.00
2013,05,04,01,17,12.90
2013,05,04,01,18,12.80
2013,05,04,01,19,12.80
2013,05,04,01,20,12.70
2013,05,04,01,21,12.70
2013,05,04,01,22,12.60
2013,05,04,01,23,12.50
2013,05,04,01,24,12.50
2013,05,04,01,25,12.40
2013,05,04,01,26,12.40
2013,05,04,01,27,12.40
2013,05,04,01,28,12.30
2013,05,04,01,29,12.30
2013,05,04,01,30,12.20
2013,05,04,01,31,12.20
2013,05,04,01,32,12.20
2013,05,04,01,33,12.10
2013,05,04,01,34,12.10
2013,05,04,01,35,12.10
2013,05,04,01,36,12.00
2013,05,04,01,37,12.00
2013,05,04,01,38,11.90
2013,05,04,01,39,11.90
2013,05,04,01,40,11.90
2013,05,04,01,41,11.80
2013,05,04,01,42,11.80
2013,05,04,01,43,11.80
2013,05,04,01,44,11.70
2013,05,04,01,45,11.70
2013,05,04,01,46,11.70
2013,05,04,01,47,11.70
2013,05,04,01,48,11.60
2013,05,04,01,49,11.60
2013,05,04,01,50,11.60
2013,05,04,01,51,11.50
2013,05,04,01,52,11.40
2013,05,04,01,53,11.40
2013,05,04,01,54,11.40
2013,05,04,01,55,11.30
2013,05,04,01,56,11.30
2013,05,04,01,57,11.30
2013,05,04,01,58,11.20
2013,05,04,01,59,11.20
2013,05,04,02,00,11.10
2013,05,04,02,01,11.10
2013,05,04,02,02,11.10
2013,05,04,02,03,11.00
2013,05,04,02,04,11.00
2013,05,04,02,05,11.00
2013,05,04,02,06,11.00
2013,05,04,02,07,11.00
2013,05,04,02,08,11.00
2013,05,04,02,09,11.00
2013,05,04,02,10,10.90
2013,05,04,02,11,10.90
2013,05,04,02,12,10.90
2013,05,04,02,13,10.90
2013,05,04,02,14,10.90
2013,05,04,02,15,10.90
2013,05,04,02,16,10.90
2013,05,04,02,17,10.90
2013,05,04,02,18,10.90
2013,05,04,02,19,10.90
2013,05,04,02,20,10.90
2013,05,04,02,21,10.90
2013,05,04,02,22,10.90
2013,05,04,02,23,10.90
2013,05,04,02,24,10.90
2013,05,04,02,25,10.90
2013,05,04,02,26,10.90
2013,05,04,02,27,10.90
2013,05,04,02,28,10.90
2013,05,04,02,29,10.90
2013,05,04,02,30,10.90
2013,05,04,02,31,10.90
2013,05,04,02,32,10.90
2013,05,04,02,33,10.90
2013,05,04,02,34,10.90
2013,05,04,02,35,10.90
2013,05,04,02,36,10.80
2013,05,04,02,37,10.80
2013,05,04,02,38,10.80
2013,05,04,02,39,10.80
2013,05,04,02,40,10.80
2013,05,04,02,41,10.70
2013,05,04,02,42,10.70
2013,05,04,02,43,10.70
2013,05,04,02,44,10.70
2013,05,04,02,45,10.60
2013,05,04,02,46,10.60
2013,05,04,02,47,10.60
2013,05,04,02,48,10.50
2013,05,04,02,49,10.50
2013,05,04,02,50,10.50
2013,05,04,02,51,10.40
2013,05,04,02,52,10.40
2013,05,04,02,53,10.40
2013,05,04,02,54,10.40
2013,05,04,02,55,10.30
2013,05,04,02,56,10.30
2013,05,04,02,57,10.30
2013,05,04,02,58,10.20
2013,05,04,02,59,10.20
2013,05,04,03,00,10.20
2013,05,04,03,01,10.20
2013,05,04,03,02,10.20
2013,05,04,03,03,10.20
2013,05,04,03,06,10.10
2013,05,04,03,07,10.10
2013,05,04,03,08,10.10
2013,05,04,03,09,10.10
2013,05,04,03,10,10.10
2013,05,04,03,11,10.10
2013,05,04,03,12,10.10
2013,05,04,03,13,10.10
2013,05,04,03,14,10.10
2013,05,04,03,15,10.10
2013,05,04,03,16,10.10
2013,05,04,03,17,10.20
2013,05,04,03,18,10.20
2013,05,04,03,19,10.20
2013,05,04,03,20,10.20
2013,05,04,03,21,10.20
2013,05,04,03,22,10.20
2013,05,04,03,23,10.20
2013,05,04,03,24,10.10
2013,05,04,03,25,10.10
2013,05,04,03,26,10.10
2013,05,04,03,27,10.10
2013,05,04,03,28,10.10
2013,05,04,03,29,10.00
2013,05,04,03,30,10.00
2013,05,04,03,31,10.00
2013,05,04,03,32,9.90
2013,05,04,03,33,9.90
2013,05,04,03,34,9.90
2013,05,04,03,35,9.90
2013,05,04,03,36,9.90
2013,05,04,03,37,9.80
2013,05,04,03,38,9.80
2013,05,04,03,39,9.80
2013,05,04,03,40,9.70
2013,05,04,03,41,9.70
2013,05,04,03,42,9.70
2013,05,04,03,43,9.60
2013,05,04,03,44,9.60
2013,05,04,03,45,9.60
2013,05,04,03,46,9.60
2013,05,04,03,47,9.50
2013,05,04,03,48,9.50
2013,05,04,03,49,9.40
2013,05,04,03,50,9.40
2013,05,04,03,51,9.50
2013,05,04,03,52,9.50
2013,05,04,03,53,9.50
2013,05,04,03,54,9.50
2013,05,04,03,55,9.50
2013,05,04,03,56,9.50
2013,05,04,03,57,9.50
2013,05,04,03,58,9.50
2013,05,04,03,59,9.50
2013,05,04,04,00,9.60
2013,05,04,04,01,9.60
2013,05,04,04,02,9.60
2013,05,04,04,03,9.60
2013,05,04,04,04,9.70
2013,05,04,04,05,9.70
2013,05,04,04,06,9.80
2013,05,04,04,07,9.80
2013,05,04,04,08,9.80
2013,05,04,04,09,9.80
2013,05,04,04,10,9.80
2013,05,04,04,11,9.80
2013,05,04,04,12,9.80
2013,05,04,04,13,9.80
2013,05,04,04,14,9.80
2013,05,04,04,15,9.80
2013,05,04,04,16,9.70
2013,05,04,04,17,9.70
2013,05,04,04,18,9.70
2013,05,04,04,19,9.70
2013,05,04,04,20,9.70
2013,05,04,04,21,9.70
2013,05,04,04,22,9.70
2013,05,04,04,23,9.70
2013,05,04,04,24,9.70
2013,05,04,04,25,9.70
2013,05,04,04,26,9.70
2013,05,04,04,27,9.60
2013,05,04,04,28,9.60
2013,05,04,04,29,9.60
2013,05,04,04,30,9.60
2013,05,04,04,31,9.60
2013,05,04,04,32,9.60
2013,05,04,04,33,9.60
2013,05,04,04,34,9.50
2013,05,04,04,35,9.50
2013,05,04,04,36,9.50
2013,05,04,04,37,9.50
2013,05,04,04,38,9.40
2013,05,04,04,39,9.40
2013,05,04,04,40,9.40
2013,05,04,04,41,9.40
2013,05,04,04,42,9.40
2013,05,04,04,43,9.40
2013,05,04,04,44,9.40
2013,05,04,04,45,9.30
2013,05,04,04,46,9.30
2013,05,04,04,47,9.30
2013,05,04,04,48,9.30
2013,05,04,04,49,9.30
2013,05,04,04,50,9.30
2013,05,04,04,51,9.30
2013,05,04,04,52,9.20
2013,05,04,04,53,9.20
2013,05,04,04,54,9.10
2013,05,04,04,55,9.10
2013,05,04,04,56,9.10
2013,05,04,04,57,9.10
2013,05,04,04,58,9.10
2013,05,04,04,59,9.10
2013,05,04,05,00,9.10
2013,05,04,05,01,9.10
2013,05,04,05,02,9.00
2013,05,04,05,03,9.00
2013,05,04,05,04,9.00
2013,05,04,05,05,8.90
2013,05,04,05,06,8.90
2013,05,04,05,07,8.90
2013,05,04,05,08,8.90
2013,05,04,05,09,8.90
2013,05,04,05,10,8.80
2013,05,04,05,11,8.80
2013,05,04,05,12,8.80
2013,05,04,05,13,8.80
2013,05,04,05,14,8.70
2013,05,04,05,15,8.70
2013,05,04,05,16,8.70
2013,05,04,05,17,8.70
2013,05,04,05,18,8.70
2013,05,04,05,19,8.70
2013,05,04,05,20,8.70
2013,05,04,05,21,8.70
2013,05,04,05,22,8.70
2013,05,04,05,23,8.70
2013,05,04,05,24,8.60
2013,05,04,05,25,8.60
2013,05,04,05,26,8.60
2013,05,04,05,27,8.60
2013,05,04,05,28,8.60
2013,05,04,05,29,8.60
2013,05,04,05,30,8.60
2013,05,04,05,31,8.50
2013,05,04,05,32,8.50
2013,05,04,05,33,8.40
2013,05,04,05,34,8.40
2013,05,04,05,35,8.30
2013,05,04,05,36,8.30
2013,05,04,05,37,8.30
2013,05,04,05,38,8.30
2013,05,04,05,39,8.30
2013,05,04,05,40,8.30
2013,05,04,05,41,8.30
2013,05,04,05,42,8.30
2013,05,04,05,43,8.30
2013,05,04,05,44,8.30
2013,05,04,05,45,8.30
2013,05,04,05,46,8.20
2013,05,04,05,47,8.20
2013,05,04,05,48,8.20
2013,05,04,05,49,8.20
2013,05,04,05,50,8.20
2013,05,04,05,51,8.10
2013,05,04,05,52,8.10
2013,05,04,05,53,8.10
2013,05,04,05,54,8.10
2013,05,04,05,55,8.10
2013,05,04,05,56,8.10
2013,05,04,05,57,8.10
2013,05,04,05,58,8.10
2013,05,04,05,59,8.00
2013,05,04,06,00,8.00
2013,05,04,06,01,8.00
2013,05,04,06,02,8.00
2013,05,04,06,03,8.00
2013,05,04,06,04,8.00
2013,05,04,06,05,8.00
2013,05,04,06,06,8.00
2013,05,04,06,07,8.00
2013,05,04,06,08,8.00
2013,05,04,06,09,8.00
2013,05,04,06,10,8.00
2013,05,04,06,11,8.00
2013,05,04,06,12,7.90
2013,05,04,06,13,7.90
2013,05,04,06,14,7.90
2013,05,04,06,15,7.90
2013,05,04,06,16,7.90
2013,05,04,06,17,7.90
2013,05,04,06,18,7.90
2013,05,04,06,19,7.90
2013,05,04,06,20,7.90
2013,05,04,06,21,7.90
2013,05,04,06,22,7.90
2013,05,04,06,23,7.90
2013,05,04,06,24,7.90
2013,05,04,06,25,7.80
2013,05,04,06,26,7.80
2013,05,04,06,27,7.80
2013,05,04,06,28,7.80
2013,05,04,06,29,7.80
2013,05,04,06,30,7.90
2013,05,04,06,31,7.90
2013,05,04,06,32,7.90
2013,05,04,06,33,7.90
2013,05,04,06,34,7.90
2013,05,04,06,35,7.90
2013,05,04,06,36,7.90
2013,05,04,06,37,7.90
2013,05,04,06,38,7.90
2013,05,04,06,39,7.90
2013,05,04,06,40,7.90
2013,05,04,06,41,7.90
2013,05,04,06,42,8.00
2013,05,04,06,43,8.00
2013,05,04,06,44,8.00
2013,05,04,06,45,8.00
2013,05,04,06,46,8.10
2013,05,04,06,47,8.10
2013,05,04,06,48,8.10
2013,05,04,06,49,8.10
2013,05,04,06,50,8.10
2013,05,04,06,51,8.10
2013,05,04,06,52,8.10
2013,05,04,06,53,8.10
2013,05,04,06,54,8.20
2013,05,04,06,55,8.20
2013,05,04,06,56,8.20
2013,05,04,06,57,8.20
2013,05,04,06,58,8.20
2013,05,04,06,59,8.20
2013,05,04,07,00,8.20
2013,05,04,07,01,8.20
2013,05,04,07,02,8.30
2013,05,04,07,03,8.30
2013,05,04,07,04,8.30
2013,05,04,07,05,8.40
2013,05,04,07,06,8.40
2013,05,04,07,07,8.50
2013,05,04,07,08,8.60
2013,05,04,07,09,8.60
2013,05,04,07,10,8.70
2013,05,04,07,11,8.80
2013,05,04,07,12,8.80
2013,05,04,07,13,8.90
2013,05,04,07,14,8.90
2013,05,04,07,15,9.00
2013,05,04,07,16,9.00
2013,05,04,07,17,9.10
2013,05,04,07,18,9.10
2013,05,04,07,19,9.20
2013,05,04,07,20,9.30
2013,05,04,07,21,9.30
2013,05,04,07,22,9.40
2013,05,04,07,23,9.40
2013,05,04,07,24,9.40
2013,05,04,07,25,9.40
2013,05,04,07,26,9.40
2013,05,04,07,27,9.40
2013,05,04,07,28,9.50
2013,05,04,07,29,9.50
2013,05,04,07,30,9.60
2013,05,04,07,31,9.60
2013,05,04,07,32,9.60
2013,05,04,07,33,9.70
2013,05,04,07,34,9.70
2013,05,04,07,35,9.80
2013,05,04,07,36,9.80
2013,05,04,07,37,9.90
2013,05,04,07,38,9.90
2013,05,04,07,39,10.00
2013,05,04,07,40,10.00
2013,05,04,07,41,10.10
2013,05,04,07,42,10.10
2013,05,04,07,43,10.20
2013,05,04,07,44,10.20
2013,05,04,07,45,10.20
2013,05,04,07,46,10.30
2013,05,04,07,47,10.30
2013,05,04,07,48,10.40
2013,05,04,07,49,10.40
2013,05,04,07,50,10.50
2013,05,04,07,51,10.50
2013,05,04,07,52,10.60
2013,05,04,07,53,10.70
2013,05,04,07,54,10.80
2013,05,04,07,55,10.80
2013,05,04,07,56,10.80
2013,05,04,07,57,10.90
2013,05,04,07,58,10.90
2013,05,04,07,59,11.00
2013,05,04,08,00,11.00
2013,05,04,08,01,11.10
2013,05,04,08,02,11.10
2013,05,04,08,03,11.20
2013,05,04,08,04,11.30
2013,05,04,08,05,11.30
2013,05,04,08,06,11.40
2013,05,04,08,07,11.40
2013,05,04,08,08,11.50
2013,05,04,08,09,11.50
2013,05,04,08,10,11.50
2013,05,04,08,11,11.40
2013,05,04,08,12,11.40
2013,05,04,08,13,11.40
2013,05,04,08,14,11.40
2013,05,04,08,15,11.30
2013,05,04,08,16,11.40
2013,05,04,08,17,11.40
2013,05,04,08,18,11.40
2013,05,04,08,19,11.40
2013,05,04,08,20,11.50
2013,05,04,08,21,11.50
2013,05,04,08,22,11.60
2013,05,04,08,23,11.60
2013,05,04,08,24,11.60
2013,05,04,08,25,11.60
2013,05,04,08,26,11.60
2013,05,04,08,27,11.70
2013,05,04,08,28,11.70
2013,05,04,08,29,11.80
2013,05,04,08,30,11.80
2013,05,04,08,31,11.80
2013,05,04,08,32,11.80
2013,05,04,08,33,11.80
2013,05,04,08,34,11.80
2013,05,04,08,35,11.90
2013,05,04,08,36,11.90
2013,05,04,08,37,12.00
2013,05,04,08,38,12.00
2013,05,04,08,39,12.10
2013,05,04,08,40,12.20
2013,05,04,08,41,12.20
2013,05,04,08,42,12.30
2013,05,04,08,43,12.40
2013,05,04,08,44,12.50
2013,05,04,08,45,12.50
2013,05,04,08,46,12.60
2013,05,04,08,47,12.70
2013,05,04,08,48,12.70
2013,05,04,08,49,12.70
2013,05,04,08,50,12.60
2013,05,04,08,51,12.60
2013,05,04,08,52,12.60
2013,05,04,08,53,12.60
2013,05,04,08,54,12.60
2013,05,04,08,55,12.60
2013,05,04,08,56,12.60
2013,05,04,08,57,12.60
2013,05,04,08,58,12.70
2013,05,04,08,59,12.70
2013,05,04,09,00,12.70
2013,05,04,09,01,12.70
2013,05,04,09,02,12.70
2013,05,04,09,03,12.70
2013,05,04,09,04,12.70
2013,05,04,09,05,12.60
2013,05,04,09,06,12.60
2013,05,04,09,07,12.60
2013,05,04,09,08,12.60
2013,05,04,09,09,12.60
2013,05,04,09,10,12.70
2013,05,04,09,11,12.70
2013,05,04,09,12,12.70
2013,05,04,09,13,12.70
2013,05,04,09,14,12.70
2013,05,04,09,15,12.70
2013,05,04,09,16,12.70
2013,05,04,09,17,12.70
2013,05,04,09,18,12.80
2013,05,04,09,19,12.80
2013,05,04,09,20,12.90
2013,05,04,09,21,13.00
2013,05,04,09,22,13.00
2013,05,04,09,23,13.10
2013,05,04,09,24,13.10
2013,05,04,09,25,13.20
2013,05,04,09,26,13.20
2013,05,04,09,27,13.30
2013,05,04,09,28,13.30
2013,05,04,09,29,13.30
2013,05,04,09,30,13.40
2013,05,04,09,31,13.50
2013,05,04,09,32,13.50
2013,05,04,09,33,13.60
2013,05,04,09,34,13.80
2013,05,04,09,35,13.80
2013,05,04,09,36,14.00
2013,05,04,09,37,14.00
2013,05,04,09,38,14.10
2013,05,04,09,39,14.20
2013,05,04,09,40,14.30
2013,05,04,09,41,14.40
2013,05,04,09,42,14.40
2013,05,04,09,43,14.40
2013,05,04,09,44,14.40
2013,05,04,09,45,14.40
2013,05,04,09,46,14.50
2013,05,04,09,47,14.60
2013,05,04,09,48,14.60
2013,05,04,09,49,14.60
2013,05,04,09,50,14.70
2013,05,04,09,51,14.70
2013,05,04,09,52,14.80
2013,05,04,09,53,14.80
2013,05,04,09,54,14.80
2013,05,04,09,55,14.80
2013,05,04,09,56,14.90
2013,05,04,09,57,15.00
2013,05,04,09,58,15.10
2013,05,04,09,59,15.20
2013,05,04,10,00,15.30
2013,05,04,10,01,15.40
2013,05,04,10,02,15.50
2013,05,04,10,03,15.50
2013,05,04,10,04,15.60
2013,05,04,10,05,15.60
2013,05,04,10,06,15.60
2013,05,04,10,07,15.60
2013,05,04,10,08,15.60
2013,05,04,10,09,15.70
2013,05,04,10,10,15.70
2013,05,04,10,11,15.80
2013,05,04,10,12,15.80
2013,05,04,10,13,15.90
2013,05,04,10,14,16.00
2013,05,04,10,15,16.10
2013,05,04,10,16,16.10
2013,05,04,10,17,16.10
2013,05,04,10,18,16.20
2013,05,04,10,19,16.30
2013,05,04,10,20,16.30
2013,05,04,10,21,16.40
2013,05,04,10,22,16.40
2013,05,04,10,23,16.40
2013,05,04,10,24,16.40
2013,05,04,10,25,16.50
2013,05,04,10,26,16.60
2013,05,04,10,27,16.70
2013,05,04,10,28,16.80
2013,05,04,10,29,16.90
2013,05,04,10,30,16.90
2013,05,04,10,31,17.00
2013,05,04,10,32,17.00
2013,05,04,10,33,17.10
2013,05,04,10,34,17.20
2013,05,04,10,35,17.30
2013,05,04,10,36,17.30
2013,05,04,10,37,17.40
2013,05,04,10,38,17.50
2013,05,04,10,39,17.60
2013,05,04,10,40,17.70
2013,05,04,10,41,17.70
2013,05,04,10,42,17.80
2013,05,04,10,43,17.80
2013,05,04,10,44,17.90
2013,05,04,10,45,18.00
2013,05,04,10,46,18.10
2013,05,04,10,47,18.10
2013,05,04,10,48,18.10
2013,05,04,10,49,18.20
2013,05,04,10,50,18.30
2013,05,04,10,51,18.30
2013,05,04,10,52,18.30
2013,05,04,10,53,18.30
2013,05,04,10,54,18.20
2013,05,04,10,55,18.20
2013,05,04,10,56,18.20
2013,05,04,10,57,18.20
2013,05,04,10,58,18.30
2013,05,04,10,59,18.40
2013,05,04,11,00,18.40
2013,05,04,11,01,18.50
2013,05,04,11,02,18.60
2013,05,04,11,03,18.70
2013,05,04,11,04,18.70
2013,05,04,11,05,18.80
2013,05,04,11,06,18.80
2013,05,04,11,07,19.00
2013,05,04,11,08,19.00
2013,05,04,11,09,19.10
2013,05,04,11,10,19.20
2013,05,04,11,11,19.30
2013,05,04,11,12,19.50
2013,05,04,11,13,19.50
2013,05,04,11,14,19.50
2013,05,04,11,15,19.40
2013,05,04,11,16,19.40
2013,05,04,11,17,19.40
2013,05,04,11,18,19.40
2013,05,04,11,19,19.40
2013,05,04,11,20,19.40
2013,05,04,11,21,19.50
2013,05,04,11,22,19.60
2013,05,04,11,23,19.70
2013,05,04,11,24,19.80
2013,05,04,11,25,19.80
2013,05,04,11,26,19.90
2013,05,04,11,27,20.00
2013,05,04,11,28,20.10
2013,05,04,11,29,20.20
2013,05,04,11,30,20.30
2013,05,04,11,31,20.30
2013,05,04,11,32,20.30
2013,05,04,11,33,20.20
2013,05,04,11,34,20.20
2013,05,04,11,35,20.30
2013,05,04,11,36,20.30
2013,05,04,11,37,20.30
2013,05,04,11,38,20.30
2013,05,04,11,39,20.30
2013,05,04,11,40,20.30
2013,05,04,11,41,20.30
2013,05,04,11,42,20.30
2013,05,04,11,43,20.30
2013,05,04,11,44,20.30
2013,05,04,11,45,20.30
2013,05,04,11,46,20.30
2013,05,04,11,47,20.30
2013,05,04,11,48,20.40
2013,05,04,11,49,20.40
2013,05,04,11,50,20.40
2013,05,04,11,51,20.40
2013,05,04,11,52,20.50
2013,05,04,11,53,20.60
2013,05,04,11,54,20.60
2013,05,04,11,55,20.60
2013,05,04,11,56,20.60
2013,05,04,11,57,20.60
2013,05,04,11,58,20.60
2013,05,04,11,59,20.60
2013,05,04,12,00,20.70
2013,05,04,12,01,20.70
2013,05,04,12,02,20.80
2013,05,04,12,03,20.90
2013,05,04,12,04,21.00
2013,05,04,12,05,21.10
2013,05,04,12,06,21.10
2013,05,04,12,07,21.20
2013,05,04,12,08,21.20
2013,05,04,12,09,21.20
2013,05,04,12,10,21.30
2013,05,04,12,11,21.30
2013,05,04,12,12,21.30
2013,05,04,12,13,21.30
2013,05,04,12,14,21.30
2013,05,04,12,15,21.30
2013,05,04,12,16,21.30
2013,05,04,12,17,21.40
2013,05,04,12,18,21.40
2013,05,04,12,19,21.50
2013,05,04,12,20,21.50
2013,05,04,12,21,21.60
2013,05,04,12,22,21.70
2013,05,04,12,23,21.70
2013,05,04,12,24,21.90
2013,05,04,12,25,21.90
2013,05,04,12,26,21.80
2013,05,04,12,27,21.80
2013,05,04,12,28,21.80
2013,05,04,12,29,21.80
2013,05,04,12,30,21.90
2013,05,04,12,31,21.90
2013,05,04,12,32,22.00
2013,05,04,12,33,22.00
2013,05,04,12,34,22.10
2013,05,04,12,35,22.10
2013,05,04,12,36,22.10
2013,05,04,12,37,22.20
2013,05,04,12,38,22.30
2013,05,04,12,39,22.50
2013,05,04,12,40,22.60
2013,05,04,12,41,22.80
2013,05,04,12,42,22.80
2013,05,04,12,43,22.90
2013,05,04,12,44,22.90
2013,05,04,12,45,22.90
2013,05,04,12,46,22.80
2013,05,04,12,47,22.80
2013,05,04,12,48,22.70
2013,05,04,12,49,22.70
2013,05,04,12,50,22.80
2013,05,04,12,51,22.80
2013,05,04,12,52,22.90
2013,05,04,12,53,23.00
2013,05,04,12,54,23.10
2013,05,04,12,55,23.20
2013,05,04,12,56,23.30
2013,05,04,12,57,23.30
2013,05,04,12,58,23.30
2013,05,04,12,59,23.30
2013,05,04,13,00,23.30
2013,05,04,13,01,23.30
2013,05,04,13,02,23.40
2013,05,04,13,03,23.50
2013,05,04,13,04,23.60
2013,05,04,13,05,23.70
2013,05,04,13,06,23.70
2013,05,04,13,07,23.70
2013,05,04,13,08,23.70
2013,05,04,13,09,23.70
2013,05,04,13,10,23.70
2013,05,04,13,11,23.80
2013,05,04,13,12,23.90
2013,05,04,13,13,23.90
2013,05,04,13,14,23.90
2013,05,04,13,15,23.90
2013,05,04,13,16,24.00
2013,05,04,13,17,24.10
2013,05,04,13,18,24.10
2013,05,04,13,19,24.10
2013,05,04,13,20,24.10
2013,05,04,13,21,24.10
2013,05,04,13,22,24.10
2013,05,04,13,23,24.00
2013,05,04,13,24,24.00
2013,05,04,13,25,23.90
2013,05,04,13,26,24.00
2013,05,04,13,27,24.10
2013,05,04,13,28,24.20
2013,05,04,13,29,24.20
2013,05,04,13,30,24.20
2013,05,04,13,31,24.30
2013,05,04,13,32,24.40
2013,05,04,13,33,24.30
2013,05,04,13,34,24.40
2013,05,04,13,35,24.40
2013,05,04,13,36,24.40
2013,05,04,13,37,24.40
2013,05,04,13,38,24.50
2013,05,04,13,39,24.40
2013,05,04,13,40,24.40
2013,05,04,13,41,24.50
2013,05,04,13,42,24.60
2013,05,04,13,43,24.70
2013,05,04,13,44,24.80
2013,05,04,13,45,24.80
2013,05,04,13,46,24.80
2013,05,04,13,47,24.80
2013,05,04,13,48,24.90
2013,05,04,13,49,25.00
2013,05,04,13,50,25.00
2013,05,04,13,51,25.00
2013,05,04,13,52,25.00
2013,05,04,13,53,25.00
2013,05,04,13,54,25.00
2013,05,04,13,55,25.10
2013,05,04,13,56,25.10
2013,05,04,13,57,25.20
2013,05,04,13,58,25.20
2013,05,04,13,59,25.30
2013,05,04,14,00,25.30
2013,05,04,14,01,25.30
2013,05,04,14,02,25.40
2013,05,04,14,03,25.30
2013,05,04,14,04,25.30
2013,05,04,14,05,25.40
2013,05,04,14,06,25.50
2013,05,04,14,07,25.50
2013,05,04,14,08,25.50
2013,05,04,14,09,25.60
2013,05,04,14,10,25.60
2013,05,04,14,11,25.60
2013,05,04,14,12,25.60
2013,05,04,14,13,25.60
2013,05,04,14,14,25.60
2013,05,04,14,15,25.60
2013,05,04,14,16,25.60
2013,05,04,14,17,25.70
2013,05,04,14,18,25.70
2013,05,04,14,19,25.70
2013,05,04,14,20,25.80
2013,05,04,14,21,25.80
2013,05,04,14,22,25.90
2013,05,04,14,23,25.90
2013,05,04,14,24,25.90
2013,05,04,14,25,25.90
2013,05,04,14,26,26.00
2013,05,04,14,27,26.00
2013,05,04,14,28,26.00
2013,05,04,14,29,26.00
2013,05,04,14,30,26.00
2013,05,04,14,31,26.00
2013,05,04,14,32,26.10
2013,05,04,14,33,26.10
2013,05,04,14,34,26.10
2013,05,04,14,35,26.00
2013,05,04,14,36,25.90
2013,05,04,14,37,25.80
2013,05,04,14,38,25.70
2013,05,04,14,39,25.70
2013,05,04,14,40,25.80
2013,05,04,14,41,25.90
2013,05,04,14,42,26.00
2013,05,04,14,43,26.10
2013,05,04,14,44,26.20
2013,05,04,14,45,26.30
2013,05,04,14,46,26.30
2013,05,04,14,47,26.20
2013,05,04,14,48,26.20
2013,05,04,14,49,26.20
2013,05,04,14,50,26.20
2013,05,04,14,51,26.20
2013,05,04,14,52,26.20
2013,05,04,14,53,26.20
2013,05,04,14,54,26.20
2013,05,04,14,55,26.30
2013,05,04,14,56,26.30
2013,05,04,14,57,26.30
2013,05,04,14,58,26.30
2013,05,04,14,59,26.30
2013,05,04,15,00,26.30
2013,05,04,15,01,26.40
2013,05,04,15,02,26.50
2013,05,04,15,03,26.60
2013,05,04,15,04,26.60
2013,05,04,15,05,26.60
2013,05,04,15,06,26.60
2013,05,04,15,07,26.50
2013,05,04,15,08,26.50
2013,05,04,15,09,26.50
2013,05,04,15,10,26.40
2013,05,04,15,11,26.40
2013,05,04,15,12,26.30
2013,05,04,15,13,26.30
2013,05,04,15,14,26.30
2013,05,04,15,15,26.30
2013,05,04,15,16,26.30
2013,05,04,15,17,26.30
2013,05,04,15,18,26.30
2013,05,04,15,19,26.40
2013,05,04,15,20,26.50
2013,05,04,15,21,26.50
2013,05,04,15,22,26.50
2013,05,04,15,23,26.50
2013,05,04,15,24,26.50
2013,05,04,15,25,26.50
2013,05,04,15,26,26.50
2013,05,04,15,27,26.50
2013,05,04,15,28,26.50
2013,05,04,15,29,26.50
2013,05,04,15,30,26.50
2013,05,04,15,31,26.40
2013,05,04,15,32,26.40
2013,05,04,15,33,26.40
2013,05,04,15,34,26.40
2013,05,04,15,35,26.40
2013,05,04,15,36,26.50
2013,05,04,15,37,26.60
2013,05,04,15,38,26.60
2013,05,04,15,39,26.60
2013,05,04,15,40,26.70
2013,05,04,15,41,26.70
2013,05,04,15,42,26.70
2013,05,04,15,43,26.70
2013,05,04,15,44,26.70
2013,05,04,15,45,26.80
2013,05,04,15,46,26.80
2013,05,04,15,47,26.80
2013,05,04,15,48,26.80
2013,05,04,15,49,26.80
2013,05,04,15,50,26.70
2013,05,04,15,51,26.60
2013,05,04,15,52,26.60
2013,05,04,15,53,26.60
2013,05,04,15,54,26.70
2013,05,04,15,55,26.70
2013,05,04,15,56,26.80
2013,05,04,15,57,26.80
2013,05,04,15,58,26.90
2013,05,04,15,59,27.00
2013,05,04,16,00,27.10
2013,05,04,16,01,27.10
2013,05,04,16,02,27.10
2013,05,04,16,03,27.00
2013,05,04,16,04,27.00
2013,05,04,16,05,27.00
2013,05,04,16,06,26.90
2013,05,04,16,07,26.90
2013,05,04,16,08,26.90
2013,05,04,16,09,26.80
2013,05,04,16,10,26.90
2013,05,04,16,11,26.90
2013,05,04,16,12,27.00
2013,05,04,16,13,27.00
2013,05,04,16,14,27.10
2013,05,04,16,15,27.20
2013,05,04,16,16,27.20
2013,05,04,16,17,27.20
2013,05,04,16,18,27.20
2013,05,04,16,19,27.30
2013,05,04,16,20,27.30
2013,05,04,16,21,27.30
2013,05,04,16,22,27.20
2013,05,04,16,23,27.10
2013,05,04,16,24,27.10
2013,05,04,16,25,27.10
2013,05,04,16,26,27.10
2013,05,04,16,27,27.00
2013,05,04,16,28,27.00
2013,05,04,16,29,26.90
2013,05,04,16,30,26.90
2013,05,04,16,31,26.90
2013,05,04,16,32,26.90
2013,05,04,16,33,26.90
2013,05,04,16,34,26.90
2013,05,04,16,35,26.90
2013,05,04,16,36,26.90
2013,05,04,16,37,26.90
2013,05,04,16,38,26.90
2013,05,04,16,39,26.90
2013,05,04,16,40,26.90
2013,05,04,16,41,26.90
2013,05,04,16,42,27.00
2013,05,04,16,43,27.10
2013,05,04,16,44,27.10
2013,05,04,16,45,27.20
2013,05,04,16,46,27.30
2013,05,04,16,47,27.40
2013,05,04,16,48,27.50
2013,05,04,16,49,27.50
2013,05,04,16,50,27.50
2013,05,04,16,51,27.40
2013,05,04,16,52,27.40
2013,05,04,16,53,27.40
2013,05,04,16,54,27.40
2013,05,04,16,55,27.40
2013,05,04,16,56,27.40
2013,05,04,16,57,27.40
2013,05,04,16,58,27.30
2013,05,04,16,59,27.30
2013,05,04,17,00,27.30
2013,05,04,17,01,27.30
2013,05,04,17,02,27.30
2013,05,04,17,03,27.20
2013,05,04,17,04,27.20
2013,05,04,17,05,27.10
2013,05,04,17,06,27.10
2013,05,04,17,07,27.20
2013,05,04,17,08,27.20
2013,05,04,17,09,27.30
2013,05,04,17,10,27.30
2013,05,04,17,11,27.30
2013,05,04,17,12,27.30
2013,05,04,17,13,27.30
2013,05,04,17,14,27.30
2013,05,04,17,15,27.30
2013,05,04,17,16,27.20
2013,05,04,17,17,27.20
2013,05,04,17,18,27.20
2013,05,04,17,19,27.30
2013,05,04,17,20,27.20
2013,05,04,17,21,27.20
2013,05,04,17,22,27.00
2013,05,04,17,23,27.00
2013,05,04,17,24,26.90
2013,05,04,17,25,26.90
2013,05,04,17,26,26.90
2013,05,04,17,27,26.90
2013,05,04,17,28,26.90
2013,05,04,17,29,27.00
2013,05,04,17,30,27.00
2013,05,04,17,31,27.00
2013,05,04,17,32,27.00